sat.trackr.live / text

‹ back to catalog

APRIZESAT 8

NORAD 39425 · 2013-066K

PAYLOAD ACTIVE UNKNOWN

§ Identity

Operator
Country
US
Launch date
2013-11-21
Launch site
DLS
Launch vehicle
Mass (kg)
RCS (m²)
0.12

Purposes: tech_demo

External: N2YO · Heavens-Above · Gunter

§ Orbital elements

Epoch: 2026-05-25T03:18:24.426144Z

Period
96.80 min
Inclination
97.8210°
Eccentricity
0.0046110
Mean motion
14.87594708 rev/d
Perigee alt
573.3 km
Apogee alt
637.7 km
Semi-major
6,983.6 km
B*
1.0959e-4
RAAN
92.9300°
Arg perigee
3.7587°
Mean anomaly
356.3966°
Rev number
67,624

§ Raw data

APRIZESAT 81 39425U 13066K   26145.13778271  .00000958  00000+0  10959-3 0  99912 39425  97.8210  92.9300 0046110   3.7587 356.3966 14.87594708676243

JSON: /api/v1/satellites/39425 · /tle

For live sub-satellite position, see the globe view (requires WebGL).

§ Visibility from observer

Set your observer location to see the next 7 days of passes ≥ 10°. The values pass through the URL so the page stays shareable.

No JS? Fill the form by hand. The geolocation button needs JavaScript.

§ Radio — SatNOGS DB

ModeDescriptionDownlinkUplink
GMSK Store and dump 400.553 MHz

1 transmitter · refreshed weekly from db.satnogs.org